Location: *
(18.4726°N, 97.4197°W)
Time: 16:58:04
(UTC+00:00)

Daily predictions for brighter satellites

Satellite Brightness Start Highest point End
(mag) Time Altitude Azimuth Time Altitude Azimuth Time Altitude Azimuth
STARLINK 1041 4.1 12:04:24 19° WSW 12:06:50 37° NW 12:10:42 10° NNE
Cosmos 2360 Rocket 2.3 12:02:20 10° SSW 12:07:59 83° ESE 12:13:40 10° NNE
ARIANE 5 R/B 4.4 12:03:15 10° WSW 12:10:40 21° SSW 12:13:29 10° SSE
STARLINK 1038 4.3 12:09:10 16° WSW 12:11:49 33° NW 12:15:33 10° NNE
STARLINK-46 1.6 12:13:43 30° NW 12:14:31 87° SW 12:16:33 10° SE
Cosmos 1953 Rocket 3.5 12:12:04 10° N 12:16:26 89° E 12:20:46 10° S
STARLINK 1046 4.5 12:13:59 14° WSW 12:16:49 29° NW 12:20:26 10° NNE
NOSS 3-2 (A) 4.4 12:09:03 10° NNW 12:17:18 81° ENE 12:25:59 10° SSE
ATLAS 2A CENTAUR R/B 2.2 12:16:04 18° WNW 12:17:55 38° N 12:24:53 10° ENE
NOAA 6 4.1 12:13:04 10° N 12:18:08 58° WNW 12:23:12 10° SSW
FENGYUN 3A 4.3 12:13:55 10° NNW 12:18:41 33° WNW 12:23:27 10° SW
SL-4 R/B 4.1 12:16:36 10° N 12:18:50 16° NE 12:21:03 10° E
H-2A R/B 4.4 12:13:45 12° W 12:20:27 46° SSW 21:02:35 10° ESE
Cosmos 1758 Rocket 4.0 12:16:45 10° NNW 12:20:52 39° W 12:25:00 10° SSW
CENTAUR R/B 4.4 12:12:54 10° N 12:20:58 44° ENE 12:29:07 10° SE
Cosmos 2237 4.2 12:15:51 10° SSW 12:21:33 75° WNW 12:27:15 10° NNE
Delta 128 3.6 12:19:15 15° WNW 12:22:54 76° SSW 12:27:40 10° ESE
CZ-4B R/B 3.3 12:23:57 10° N 12:29:11 49° WNW 12:34:19 10° SSW
Milstar 3 3.3 12:20:37 10° WSW 12:31:40 80° NNW 12:38:37 10° ENE
Cosmos 1703 3.2 12:29:37 10° N 12:33:31 68° W 12:37:22 10° S
Cosmos 1340 Rocket 4.1 12:29:52 10° SSE 12:33:37 44° E 12:37:20 10° NNE
Cosmos 2058 Rocket 4.1 12:34:15 10° SW 12:37:48 24° W 12:41:20 10° NNW
Okean O Rocket 2.5 12:37:59 10° NNW 12:41:40 26° WNW 12:45:20 10° SW
SMAP 3.1 12:37:57 10° N 12:42:36 84° W 12:47:15 10° SSW
SL-8 Rocket 4.2 12:38:44 10° NNW 12:44:38 50° W 12:50:31 10° SSW
GPS 2-17 Rocket1 4.3 12:40:48 10° W 12:44:52 31° SSW 12:48:51 10° SE
Okean-O 4.3 12:42:06 10° NNE 12:46:16 40° E 12:50:25 10° S
Timation 1 Rocket 4.4 12:41:48 10° NNW 12:47:49 90° WSW 12:53:49 10° SSE
ATLAS 2A CENTAUR R/B 3.5 12:33:41 10° WNW 12:52:01 75° NNE 12:56:04 10° E
